Temp
-9 -9 -9 -9 -10 -9 -9 -10 -9 -10 -10 -10 -9 -9 -8 -8 -7 -8 -8 -8 -8 -7 -7 -8 -8 -8 -8 -8 -8 -8 -8 -8 -8 -8 -8 -7 -7 -7 -6 -6 -6 -6 -6
-9 -8 -8 -8 -8 -7 -8 -9 -9 -9 -9 -9 -9 -8 -9 -8 -7 -7 -8 -8 -8 -8 -7 -8 -8 -8 -7 -8 -8 -8 -8 -8 -8 -8 -8 -8 -7 -7 -7 -6 -6 -6 -6
-9 -8 -7 -7 -7 -6 -8 -8 -9 -9 -9 -10 -9 -8 -9 -8 -7 -7 -7 -7 -8 -8 -8 -8 -8 -8 -8 -8 -8 -8 -7 -8 -8 -8 -8 -8 -8 -8 -7 -8 -7 -7 -6
-9 -8 -8 -6 -6 -6 -6 -6 -8 -9 -8 -9 -9 -8 -8 -8 -8 -7 -7 -8 -8 -9 -9 -9 -8 -8 -8 -8 -8 -8 -7 -8 -8 -8 -8 -8 -8 -8 -8 -7 -7 -7 -7
-8 -8 -8 -8 -8 -8 -8 -6 -8 -8 -8 -7 -7 -7 -8 -8 -9 -8 -8 -7 -8 -9 -9 -9 -9 -8 -8 -8 -8 -8 -8 -8 -7 -8 -7 -8 -8 -7 -8 -7 -7 -7 -7
-9 -9 -8 -8 -9 -9 -9 -9 -8 -8 -6 -6 -6 -7 -8 -9 -7 -6 -7 -8 -7 -7 -8 -8 -9 -8 -8 -8 -8 -8 -8 -8 -8 -8 -7 -7 -8 -8 -8 -8 -8 -7 -7
-8 -9 -9 -9 -10 -10 -10 -10 -9 -8 -8 -7 -7 -7 -8 -8 -7 -6 -7 -7 -7 -7 -8 -8 -8 -8 -8 -8 -9 -9 -9 -9 -8 -8 -8 -8 -8 -8 -8 -8 -8 -8 -8
-10 -10 -10 -10 -10 -10 -10 -9 -9 -9 -8 -8 -8 -9 -7 -7 -6 -6 -7 -7 -7 -7 -7 -7 -7 -8 -8 -8 -8 -9 -9 -9 -9 -8 -9 -9 -8 -8 -8 -8 -8 -8 -8
-11 -11 -11 -10 -10 -10 -9 -9 -9 -9 -9 -9 -9 -9 -8 -7 -6 -6 -7 -7 -8 -8 -7 -7 -7 -7 -8 -8 -8 -9 -9 -9 -9 -9 -9 -9 -9 -9 -8 -8 -8 -8 -8
-11 -11 -11 -11 -10 -10 -10 -10 -9 -9 -9 -9 -9 -9 -9 -8 -8 -8 -7 -8 -8 -8 -8 -8 -8 -8 -8 -8 -8 -9 -9 -10 -9 -9 -9 -9 -9 -9 -9 -8 -8 -8 -8
-12 -11 -11 -10 -10 -9 -9 -9 -9 -9 -9 -8 -8 -8 -8 -8 -8 -8 -8 -8 -8 -8 -8 -8 -8 -8 -8 -8 -8 -8 -9 -9 -9 -8 -9 -9 -9 -9 -9 -9 -9 -8 -8
-12 -11 -10 -10 -10 -9 -9 -9 -9 -8 -8 -8 -8 -8 -8 -8 -7 -9 -9 -8 -8 -8 -8 -8 -8 -9 -8 -9 -9 -9 -9 -8 -9 -9 -8 -9 -9 -9 -9 -9 -9 -9 -9
-11 -11 -11 -11 -10 -10 -9 -9 -9 -9 -9 -8 -8 -8 -8 -8 -8 -8 -7 -8 -9 -9 -9 -9 -9 -9 -9 -9 -9 -9 -9 -9 -9 -9 -9 -9 -9 -9 -9 -8 -9 -9 -9
-12 -11 -11 -12 -11 -11 -10 -10 -9 -9 -9 -9 -9 -9 -8 -9 -9 -9 -8 -8 -8 -9 -10 -11 -10 -10 -9 -9 -9 -9 -9 -9 -9 -9 -9 -9 -9 -9 -9 -9 -9 -9 -9
-12 -11 -11 -11 -11 -10 -11 -10 -10 -10 -9 -9 -9 -9 -9 -9 -10 -10 -9 -10 -10 -10 -10 -10 -10 -10 -11 -9 -9 -9 -9 -9 -9 -9 -9 -9 -9 -9 -9 -9 -9 -9 -9
-11 -11 -11 -11 -11 -11 -10 -10 -10 -9 -9 -9 -9 -9 -9 -9 -9 -9 -10 -10 -10 -10 -10 -10 -10 -10 -9 -9 -9 -9 -10 -10 -10 -10 -9 -9 -9 -9 -9 -9 -9 -9 -9
-11 -11 -11 -11 -10 -10 -10 -10 -10 -10 -10 -10 -9 -9 -9 -9 -9 -9 -9 -9 -9 -9 -10 -10 -10 -10 -10 -10 -10 -10 -11 -10 -10 -11 -11 -11 -11 -10 -9 -9 -9 -9 -10
-11 -11 -11 -11 -11 -11 -11 -11 -10 -10 -10 -10 -10 -10 -10 -10 -10 -10 -10 -10 -10 -10 -10 -11 -11 -10 -10 -10 -10 -10 -10 -10 -11 -11 -11 -12 -11 -11 -11 -11 -11 -11 -10
-11 -11 -11 -11 -11 -11 -11 -11 -11 -11 -11 -11 -11 -11 -11 -11 -11 -10 -10 -10 -10 -10 -10 -10 -10 -10 -10 -11 -10 -10 -10 -10 -10 -10 -11 -11 -11 -11 -11 -11 -11 -10 -10
-12 -12 -12 -12 -12 -12 -12 -12 -12 -11 -11 -11 -11 -11 -11 -11 -11 -11 -11 -11 -11 -11 -11 -11 -11 -10 -10 -10 -10 -10 -10 -10 -10 -10 -10 -10 -11 -11 -11 -11 -10 -10 -10
-12 -12 -12 -12 -12 -12 -12 -12 -12 -12 -12 -12 -12 -12 -11 -11 -11 -12 -12 -12 -12 -12 -12 -12 -12 -12 -12 -12 -11 -11 -11 -11 -11 -11 -11 -11 -11 -11 -11 -10 -10 -10 -10
-13 -13 -13 -13 -13 -13 -13 -13 -13 -13 -13 -12 -13 -12 -12 -12 -12 -12 -12 -12 -12 -12 -13 -13 -13 -14 -14 -14 -14 -13 -12 -13 -12 -12 -12 -12 -11 -11 -11 -11 -10 -10 -10
-14 -14 -13 -13 -13 -13 -13 -13 -13 -13 -13 -13 -13 -13 -13 -13 -13 -13 -13 -13 -13 -12 -13 -13 -14 -14 -14 -14 -15 -16 -15 -15 -15 -14 -14 -13 -13 -13 -12 -12 -11 -10 -10
-13 -13 -14 -14 -14 -13 -13 -13 -13 -13 -13 -13 -13 -13 -13 -13 -13 -13 -13 -13 -13 -13 -13 -14 -14 -15 -15 -15 -16 -16 -16 -16 -16 -15 -15 -15 -14 -14 -13 -13 -12 -12 -11
-14 -14 -14 -14 -14 -14 -14 -14 -14 -14 -14 -14 -14 -14 -14 -14 -14 -14 -14 -14 -14 -15 -15 -15 -15 -15 -15 -15 -16 -16 -16 -16 -16 -16 -16 -16 -15 -15 -14 -14 -13 -13 -13
-14 -14 -14 -14 -14 -14 -14 -14 -15 -15 -14 -14 -15 -15 -15 -15 -15 -15 -15 -15 -15 -15 -16 -15 -15 -16 -16 -16 -16 -16 -17 -17 -16 -16 -16 -16 -16 -15 -15 -14 -14 -14 -13
Height
5796 5799 5803 5804 5807 5811 5816 5825 5830 5830 5826 5828 5833 5836 5839 5841 5843 5844 5846 5849 5850 5850 5851 5850 5851 5851 5851 5851 5852 5851 5851 5851 5852 5851 5849 5848 5848 5850 5852 5854 5856 5858 5858
5783 5788 5795 5796 5798 5805 5810 5810 5815 5820 5819 5814 5819 5825 5832 5835 5837 5838 5838 5840 5841 5841 5844 5845 5845 5846 5846 5848 5848 5847 5847 5847 5847 5848 5846 5842 5842 5842 5844 5846 5847 5848 5850
5771 5774 5780 5784 5783 5788 5796 5800 5807 5810 5810 5808 5813 5818 5825 5827 5827 5830 5831 5831 5833 5834 5836 5838 5839 5840 5840 5842 5843 5842 5841 5841 5842 5843 5843 5840 5839 5837 5838 5839 5840 5841 5844
5758 5762 5762 5761 5766 5768 5772 5782 5782 5790 5780 5795 5802 5805 5813 5816 5818 5819 5822 5823 5825 5826 5829 5831 5832 5834 5835 5837 5838 5836 5837 5837 5837 5837 5839 5838 5837 5836 5835 5835 5835 5835 5837
5750 5753 5751 5747 5751 5752 5754 5761 5769 5766 5777 5786 5788 5792 5798 5802 5804 5806 5808 5811 5813 5815 5819 5822 5824 5827 5828 5830 5832 5831 5831 5832 5832 5833 5832 5833 5833 5833 5833 5833 5832 5831 5830
5746 5748 5744 5745 5745 5751 5751 5762 5762 5767 5773 5776 5774 5776 5784 5790 5792 5795 5793 5797 5799 5806 5810 5813 5815 5819 5820 5822 5824 5824 5824 5825 5825 5825 5826 5826 5827 5829 5829 5829 5829 5829 5828
5733 5739 5741 5742 5745 5751 5758 5758 5759 5761 5765 5766 5765 5765 5776 5783 5784 5783 5780 5785 5790 5795 5798 5802 5806 5809 5811 5814 5815 5817 5817 5816 5818 5818 5818 5818 5819 5821 5823 5823 5824 5825 5825
5731 5734 5739 5742 5745 5747 5752 5754 5757 5759 5761 5761 5763 5766 5770 5777 5776 5775 5773 5778 5782 5787 5789 5792 5796 5799 5802 5805 5806 5809 5810 5808 5808 5809 5811 5811 5811 5812 5814 5816 5817 5817 5818
5732 5735 5739 5743 5746 5747 5750 5753 5754 5756 5758 5758 5761 5762 5765 5766 5768 5768 5768 5773 5776 5778 5780 5784 5787 5790 5793 5796 5797 5799 5799 5800 5801 5802 5802 5803 5804 5805 5806 5807 5807 5810 5809
5733 5735 5737 5740 5743 5745 5747 5750 5752 5754 5754 5754 5757 5757 5761 5760 5761 5764 5765 5766 5767 5770 5772 5773 5777 5780 5782 5785 5787 5789 5791 5793 5793 5794 5797 5796 5795 5796 5798 5798 5798 5800 5802
5737 5738 5741 5743 5744 5744 5745 5745 5746 5748 5749 5750 5751 5752 5753 5753 5755 5756 5759 5759 5761 5762 5762 5764 5766 5769 5773 5775 5777 5778 5778 5779 5783 5785 5786 5788 5788 5788 5788 5789 5789 5791 5792
5733 5734 5736 5737 5738 5738 5739 5739 5741 5743 5743 5744 5745 5745 5746 5747 5748 5752 5751 5752 5754 5754 5755 5755 5755 5760 5762 5767 5767 5768 5769 5771 5772 5775 5775 5777 5779 5780 5779 5778 5780 5782 5784
5724 5726 5729 5731 5732 5732 5731 5731 5733 5734 5735 5736 5737 5738 5739 5740 5740 5741 5745 5747 5745 5745 5747 5747 5748 5751 5753 5755 5755 5757 5757 5760 5762 5763 5764 5766 5768 5768 5769 5770 5770 5771 5773
5721 5721 5723 5724 5724 5725 5726 5726 5729 5729 5730 5732 5730 5730 5730 5733 5735 5734 5736 5735 5736 5738 5737 5738 5740 5741 5743 5743 5744 5746 5747 5748 5749 5750 5752 5754 5754 5755 5756 5758 5759 5759 5760
5717 5717 5717 5718 5718 5719 5721 5722 5724 5724 5724 5725 5724 5726 5726 5723 5725 5727 5729 5728 5728 5729 5730 5729 5731 5733 5735 5735 5735 5734 5735 5736 5737 5738 5739 5740 5741 5742 5743 5744 5746 5746 5747
5713 5713 5713 5714 5714 5715 5717 5718 5718 5718 5719 5720 5721 5721 5722 5722 5720 5719 5721 5722 5723 5722 5722 5723 5723 5722 5723 5724 5724 5722 5722 5721 5722 5724 5725 5726 5727 5727 5728 5728 5729 5730 5734
5710 5710 5711 5712 5712 5713 5713 5714 5715 5715 5715 5716 5716 5716 5715 5714 5715 5714 5713 5712 5712 5712 5713 5714 5714 5713 5714 5714 5712 5710 5710 5709 5708 5708 5710 5712 5712 5711 5712 5714 5714 5715 5717
5706 5706 5707 5707 5708 5708 5709 5708 5709 5711 5711 5710 5709 5708 5709 5709 5708 5707 5705 5705 5704 5703 5702 5701 5700 5701 5701 5700 5699 5699 5698 5698 5696 5696 5697 5698 5699 5700 5700 5701 5702 5703 5706
5701 5702 5703 5703 5705 5704 5703 5704 5704 5703 5703 5701 5701 5701 5701 5701 5699 5699 5698 5697 5695 5694 5693 5692 5691 5690 5688 5687 5685 5684 5683 5683 5683 5683 5683 5684 5685 5686 5688 5689 5690 5691 5692
5696 5697 5698 5699 5698 5699 5698 5698 5697 5696 5694 5693 5693 5692 5691 5691 5690 5689 5688 5687 5686 5685 5683 5681 5678 5676 5674 5673 5672 5671 5671 5670 5669 5667 5668 5668 5670 5670 5672 5674 5676 5677 5678
5692 5692 5692 5691 5690 5689 5690 5690 5688 5687 5686 5685 5683 5683 5682 5679 5677 5677 5676 5673 5673 5671 5668 5667 5665 5663 5661 5658 5656 5654 5653 5652 5651 5652 5652 5651 5651 5653 5655 5657 5659 5660 5663
5686 5685 5685 5684 5684 5683 5681 5680 5679 5678 5676 5675 5673 5671 5669 5668 5666 5664 5663 5661 5658 5654 5651 5649 5646 5643 5641 5639 5639 5638 5636 5634 5633 5632 5632 5634 5634 5635 5636 5639 5642 5644 5647
5678 5677 5677 5676 5675 5673 5672 5670 5668 5666 5665 5663 5661 5659 5657 5656 5654 5652 5650 5647 5644 5641 5638 5635 5632 5630 5628 5625 5623 5620 5619 5617 5616 5615 5614 5615 5616 5618 5618 5620 5623 5626 5629
5671 5668 5666 5664 5663 5661 5659 5658 5656 5654 5652 5650 5648 5646 5644 5642 5640 5638 5636 5635 5633 5630 5626 5623 5620 5618 5614 5611 5610 5608 5606 5603 5600 5599 5598 5598 5599 5601 5602 5604 5606 5608 5611
5661 5659 5657 5655 5653 5650 5647 5645 5642 5640 5638 5636 5633 5630 5628 5627 5625 5623 5621 5620 5617 5615 5612 5609 5607 5605 5603 5600 5597 5595 5592 5589 5587 5584 5583 5583 5584 5585 5586 5588 5590 5592 5595
5651 5649 5646 5643 5640 5637 5634 5631 5628 5625 5622 5619 5616 5613 5610 5608 5606 5605 5603 5601 5599 5597 5596 5594 5592 5591 5589 5586 5585 5583 5580 5577 5575 5573 5571 5571 5571 5571 5572 5573 5575 5577 5580
Wind_Speed
54 52 58 55 51 54 53 58 59 55 44 43 38 35 34 33 31 27 25 23 23 25 25 25 23 21 19 18 15 18 18 15 16 16 18 22 29 31 30 31 32 31 28
36 44 51 54 53 57 65 61 64 62 57 48 41 39 39 37 36 34 33 30 29 27 27 27 25 22 20 19 20 17 16 15 15 13 15 18 22 23 26 29 31 27 27
38 40 39 46 49 51 53 63 74 74 66 52 45 43 41 41 39 40 41 40 35 32 30 32 28 26 24 23 22 18 17 18 17 16 17 13 15 15 21 22 24 26 22
37 35 38 48 44 52 57 62 77 77 70 54 47 46 47 48 46 45 47 46 43 40 36 36 33 29 28 26 25 21 19 18 17 17 16 17 15 11 14 16 18 21 24
26 28 23 27 12 16 32 45 39 20 8 22 34 46 50 44 48 52 58 50 51 47 40 41 36 33 30 29 28 25 22 21 19 18 18 18 20 19 16 14 17 15 15
26 17 16 5 8 13 15 8 5 11 14 17 20 39 51 49 47 51 55 55 54 44 48 46 34 37 31 30 31 28 25 24 21 18 20 20 22 22 21 20 20 21 23
11 10 3 5 6 9 11 13 12 16 18 15 11 13 29 34 37 33 42 46 41 40 46 49 43 38 34 31 31 32 29 26 24 23 23 22 20 22 25 26 27 27 27
10 4 4 6 8 12 15 11 11 13 21 19 21 20 21 28 29 24 22 25 31 48 44 43 38 38 37 37 33 33 31 28 27 26 26 25 22 21 23 26 27 28 31
7 6 8 10 11 13 14 13 12 15 17 13 18 23 26 29 28 25 18 22 34 42 41 34 35 39 37 40 38 36 35 32 28 28 28 27 26 25 26 27 29 27 28
5 5 5 6 8 10 13 14 13 15 15 17 18 17 25 25 24 25 21 21 16 29 35 42 41 35 38 36 41 40 39 35 34 32 31 31 29 27 29 31 31 29 28
9 9 10 13 15 17 18 18 20 16 16 14 14 18 19 22 26 25 24 24 21 26 38 36 45 54 32 28 39 42 46 42 36 34 34 35 35 32 31 35 36 32 28
11 9 12 13 13 11 13 15 17 21 21 19 17 18 19 20 22 27 30 24 22 18 23 23 18 26 43 34 36 36 48 43 41 40 40 39 40 42 39 39 38 37 33
12 10 11 13 12 11 11 12 15 16 18 21 22 22 22 22 21 22 28 31 35 28 27 23 26 26 30 32 31 35 32 32 35 38 40 39 45 45 46 46 45 41 37
15 15 15 12 11 12 12 12 15 15 14 15 15 17 21 24 26 27 28 29 25 31 32 34 22 26 30 34 36 36 35 35 38 40 41 39 44 44 45 49 54 50 42
16 16 14 14 16 16 15 13 15 15 17 17 18 19 18 18 22 25 28 27 28 26 26 25 27 29 32 37 39 40 40 41 42 41 48 46 45 48 50 50 49 54 50
13 13 11 10 11 11 11 11 11 11 13 15 16 17 20 20 20 21 24 27 29 30 31 34 37 36 38 40 41 40 40 41 42 45 45 46 44 45 46 51 50 52 50
10 10 9 10 11 11 11 10 8 11 13 14 15 17 19 21 23 23 25 28 31 33 32 32 35 36 37 39 40 40 42 44 43 43 43 44 43 41 43 53 55 57 48
13 13 13 12 10 10 11 12 13 14 16 17 18 18 20 21 22 23 25 28 30 32 34 33 33 34 38 42 43 44 43 45 45 45 43 47 47 45 43 42 42 43 47
13 12 12 13 14 14 16 17 18 19 19 20 21 21 22 22 23 25 27 29 31 34 37 39 41 42 43 43 42 44 45 48 50 49 50 49 51 52 49 49 48 48 48
16 15 15 17 18 19 20 21 23 24 26 27 29 28 27 27 26 26 27 28 30 33 36 38 41 45 49 52 52 52 50 49 48 51 54 52 52 52 55 50 49 46 46
18 20 21 21 23 24 26 28 29 30 32 32 32 31 31 32 33 34 36 36 37 37 37 40 43 44 46 49 53 57 58 58 56 52 51 52 55 55 54 55 58 57 53
19 21 23 25 27 29 30 30 31 33 34 35 34 35 35 36 38 39 41 42 44 44 44 45 46 46 47 48 45 50 57 58 57 57 56 53 51 51 55 58 59 57 59
23 24 26 27 29 31 31 32 33 34 35 37 37 37 38 39 40 41 42 45 46 48 49 46 48 47 46 47 44 40 38 46 48 50 51 51 50 49 49 51 52 58 61
26 28 29 31 33 35 36 37 39 41 43 45 46 46 46 47 46 45 46 47 47 49 48 47 47 45 44 43 40 40 40 40 43 43 44 47 48 48 48 49 50 52 53
32 34 36 37 38 39 41 43 44 46 47 47 48 48 49 49 50 51 52 51 47 45 46 46 46 44 42 40 41 42 42 41 40 42 40 38 41 44 44 44 46 48 48
37 38 40 41 43 44 46 46 46 47 49 50 50 49 49 49 50 50 51 51 49 44 43 46 45 43 40 39 39 40 38 38 38 38 37 38 35 36 38 38 38 40 42
Wind_Direction
234 241 239 253 260 223 231 233 238 236 226 225 225 227 232 232 234 238 248 256 260 261 262 257 252 247 251 261 264 256 252 247 249 259 261 255 257 259 253 251 255 257 257
236 239 248 250 262 256 248 230 236 238 235 230 238 228 231 238 242 242 242 242 251 254 261 256 250 250 250 257 256 252 255 258 260 267 272 260 257 251 246 242 246 247 251
242 246 248 252 259 255 244 256 239 242 238 236 234 245 242 240 241 246 247 245 242 246 251 257 253 251 249 251 253 254 257 258 257 261 267 279 265 252 242 233 238 246 249
246 254 265 262 256 249 251 252 250 235 240 234 240 244 250 252 254 248 250 250 246 241 243 252 256 252 249 250 252 252 256 261 267 266 269 274 272 255 243 240 242 243 246
239 246 249 247 266 239 241 269 256 248 272 239 247 250 251 257 258 257 256 248 242 244 235 246 252 254 253 250 252 254 255 256 263 274 275 266 266 265 255 243 242 238 232
234 227 252 330 53 207 263 283 184 209 252 255 254 244 241 236 257 260 253 255 248 255 250 242 245 251 253 250 252 254 254 258 260 262 272 269 262 265 259 261 258 255 248
229 232 195 112 100 150 201 217 239 225 233 223 212 204 225 241 245 257 249 244 243 262 245 239 250 244 249 253 254 257 257 257 260 259 263 267 270 268 271 268 268 269 265
178 195 182 179 220 214 224 225 233 237 229 232 224 232 228 248 256 247 231 231 250 259 248 245 236 240 244 249 251 256 256 255 254 253 259 265 267 268 272 276 274 273 272
186 199 213 215 220 218 228 247 251 243 241 259 263 247 233 236 243 249 241 249 246 244 234 243 242 243 243 247 249 250 256 256 257 257 261 263 264 267 271 274 274 276 273
185 184 187 206 221 227 235 242 245 248 254 250 252 257 251 251 246 243 245 236 246 241 238 239 251 247 247 253 244 248 252 253 254 257 261 265 266 270 273 273 273 275 274
204 205 209 212 222 222 229 239 247 259 269 277 278 284 281 280 268 245 243 251 253 259 254 244 251 249 243 264 265 252 245 247 251 257 259 263 265 266 269 273 273 272 270
233 234 240 233 222 221 231 233 241 248 256 259 264 263 270 277 286 274 253 257 244 247 239 247 245 253 243 261 259 261 263 253 252 253 255 258 262 268 266 267 272 274 273
263 249 230 227 229 233 234 236 243 244 250 254 257 260 261 269 264 261 271 281 270 256 249 248 253 249 246 253 256 255 252 254 258 261 251 268 264 263 265 267 265 262 268
249 249 252 257 260 256 251 244 237 235 240 252 260 254 252 258 261 262 270 278 277 280 290 298 291 267 263 262 266 265 264 259 265 260 259 258 262 267 267 271 266 266 260
261 263 262 257 255 252 254 256 252 250 253 263 268 272 274 267 266 266 270 267 270 269 274 281 274 274 273 267 263 263 262 263 267 268 270 270 267 265 266 267 261 262 257
256 253 254 257 257 258 264 271 277 278 283 280 284 286 287 287 284 283 282 280 276 271 271 269 265 261 259 257 258 259 261 261 261 262 264 266 265 260 260 259 253 254 255
246 248 248 259 265 269 271 271 271 272 271 273 274 275 274 275 280 281 284 284 285 283 280 276 276 275 270 265 264 264 264 266 265 264 266 266 268 265 260 255 254 247 247
260 264 263 257 247 249 255 262 265 269 273 273 273 277 277 277 279 282 285 285 287 290 293 292 289 284 280 278 277 274 273 270 267 265 267 262 259 259 258 260 262 263 262
272 261 251 249 252 257 264 271 277 282 281 279 277 273 272 273 274 275 278 280 282 283 283 282 282 282 283 283 283 282 278 274 272 270 269 266 258 251 255 256 259 261 260
269 265 265 267 272 275 278 282 286 286 285 284 281 278 277 277 278 282 281 281 284 284 281 280 280 281 281 280 278 276 274 274 275 274 268 265 264 259 252 256 254 260 263
273 273 275 281 284 286 286 286 286 285 283 279 276 275 278 281 282 285 289 288 290 290 290 290 289 286 281 277 275 274 273 272 271 268 269 270 264 260 258 255 255 256 261
279 279 280 282 283 284 285 286 287 286 285 283 279 280 281 281 283 285 286 288 291 294 297 299 299 300 299 297 290 277 272 272 269 269 268 265 264 265 262 259 259 259 254
278 279 280 281 282 281 282 283 282 282 283 281 279 278 279 281 281 281 282 285 290 293 294 295 296 296 296 294 292 287 279 272 273 269 266 264 263 262 263 262 259 256 254
290 287 286 285 285 285 285 285 287 286 285 283 279 275 276 276 277 278 280 282 284 286 285 286 288 290 292 292 288 284 286 281 276 276 271 265 263 262 260 259 259 259 257
284 283 282 282 282 283 283 283 282 281 279 278 279 280 279 280 281 281 281 283 284 283 281 283 284 284 285 286 285 286 284 282 279 280 277 271 265 263 263 262 259 259 259
287 286 286 286 286 286 286 285 283 283 282 281 282 282 282 281 281 282 284 285 284 280 280 282 281 280 281 283 283 283 284 282 279 278 277 271 262 262 265 264 262 260 258